| time (UTC) | temp C | wind direction | speed KPH | gust KPH | rain 1hr cm | rain 24hr cm | rain mn cm | humidity % | barometer mb |
| 20260509084601 | 12 | 111 | 0.0 | 0.0 | 0.00 | 0.00 | 0.00 | 95 | 1012.2 |
| 20260509084050 | 12 | 111 | 3.2 | 0.0 | 0.00 | 0.00 | 0.00 | 95 | 1012.2 |
| 20260509083550 | 12 | 120 | 3.2 | 0.0 | 0.00 | 0.00 | 0.00 | 95 | 1012.2 |
| 20260509083049 | 12 | 69 | 1.6 | 0.0 | 0.00 | 0.00 | 0.00 | 95 | 1012.2 |
| 20260509082549 | 12 | 149 | 0.0 | 0.0 | 0.00 | 0.00 | 0.00 | 95 | 1012.3 |
| 20260509082049 | 12 | 149 | 0.0 | 0.0 | 0.00 | 0.00 | 0.00 | 95 | 1012.3 |
| 20260509081553 | 12 | 143 | 0.0 | 0.0 | 0.00 | 0.00 | 0.00 | 95 | 1012.3 |
| 20260509081049 | 12 | 143 | 0.0 | 0.0 | 0.00 | 0.00 | 0.00 | 95 | 1012.4 |
| 20260509080547 | 12 | 143 | 0.0 | 0.0 | 0.00 | 0.00 | 0.00 | 95 | 1012.4 |
| 20260509080051 | 12 | 143 | 0.0 | 0.0 | 0.00 | 0.00 | 0.00 | 95 | 1012.4 |
| 20260509075547 | 12 | 143 | 0.0 | 0.0 | 0.00 | 0.00 | 0.00 | 95 | 1012.7 |
| 20260509075046 | 12 | 143 | 0.0 | 0.0 | 0.00 | 0.00 | 0.00 | 95 | 1012.7 |
| 20260509074546 | 12 | 143 | 0.0 | 0.0 | 0.00 | 0.00 | 0.00 | 95 | 1012.7 |
| 20260509074046 | 12 | 143 | 0.0 | 0.0 | 0.00 | 0.00 | 0.00 | 95 | 1012.7 |
| 20260509073546 | 12 | 143 | 0.0 | 0.0 | 0.00 | 0.00 | 0.00 | 95 | 1012.7 |
| 20260509073047 | 12 | 143 | 1.6 | 0.0 | 0.00 | 0.00 | 0.00 | 95 | 1012.7 |
| 20260509072548 | 12 | 143 | 0.0 | 0.0 | 0.00 | 0.00 | 0.00 | 95 | 1012.7 |
| 20260509072044 | 12 | 143 | 0.0 | 0.0 | 0.00 | 0.00 | 0.00 | 95 | 1012.7 |
| 20260509071548 | 12 | 143 | 0.0 | 0.0 | 0.00 | 0.00 | 0.00 | 95 | 1012.7 |
| 20260509071044 | 12 | 143 | 0.0 | 0.0 | 0.00 | 0.00 | 0.00 | 95 | 1012.9 |
| 20260509070546 | 12 | 143 | 0.0 | 0.0 | 0.00 | 0.00 | 0.00 | 95 | 1012.9 |
| 20260509070049 | 12 | 143 | 0.0 | 0.0 | 0.00 | 0.00 | 0.00 | 95 | 1012.9 |
| 20260509065542 | 12 | 143 | 0.0 | 0.0 | 0.00 | 0.00 | 0.00 | 95 | 1012.9 |
| 20260509065043 | 12 | 143 | 1.6 | 0.0 | 0.00 | 0.00 | 0.00 | 95 | 1012.9 |
| 20260509064554 | 12 | 143 | 1.6 | 0.0 | 0.00 | 0.00 | 0.00 | 95 | 1012.9 |
| 20260509064041 | 12 | 170 | 0.0 | 0.0 | 0.00 | 0.00 | 0.00 | 95 | 1013.0 |
| 20260509063541 | 12 | 170 | 1.6 | 0.0 | 0.00 | 0.00 | 0.00 | 95 | 1013.0 |
| 20260509063042 | 12 | 170 | 1.6 | 0.0 | 0.00 | 0.00 | 0.00 | 95 | 1013.0 |
| 20260509062542 | 12 | 167 | 1.6 | 0.0 | 0.00 | 0.00 | 0.00 | 95 | 1013.2 |
| 20260509062042 | 12 | 171 | 1.6 | 0.0 | 0.00 | 0.00 | 0.00 | 95 | 1013.2 |
| 20260509061551 | 12 | 180 | 1.6 | 0.0 | 0.00 | 0.00 | 0.00 | 95 | 1013.2 |
| 20260509061042 | 12 | 159 | 1.6 | 0.0 | 0.00 | 0.00 | 0.00 | 95 | 1013.2 |
| 20260509060541 | 12 | 154 | 1.6 | 0.0 | 0.00 | 0.00 | 0.00 | 95 | 1013.2 |
| 20260509060042 | 12 | 183 | 1.6 | 0.0 | 0.00 | 0.00 | 0.00 | 95 | 1013.2 |
| 20260509055540 | 12 | 183 | 1.6 | 0.0 | 0.00 | 0.00 | 0.00 | 95 | 1013.2 |
| 20260509055040 | 12 | 156 | 1.6 | 0.0 | 0.00 | 0.00 | 0.00 | 95 | 1013.2 |
| 20260509054546 | 12 | 195 | 1.6 | 0.0 | 0.00 | 0.00 | 0.00 | 95 | 1013.2 |
| 20260509054040 | 12 | 171 | 1.6 | 0.0 | 0.00 | 0.00 | 0.00 | 95 | 1013.1 |
| 20260509053541 | 12 | 165 | 1.6 | 0.0 | 0.00 | 0.00 | 0.00 | 95 | 1013.1 |
| 20260509053040 | 12 | 182 | 1.6 | 0.0 | 0.00 | 0.00 | 0.00 | 95 | 1013.1 |
| 20260509052542 | 12 | 180 | 1.6 | 0.0 | 0.00 | 0.00 | 0.00 | 95 | 1013.1 |
| 20260509052040 | 12 | 178 | 1.6 | 0.0 | 0.00 | 0.00 | 0.00 | 95 | 1013.1 |
| 20260509051542 | 12 | 228 | 1.6 | 0.0 | 0.00 | 0.00 | 0.00 | 95 | 1013.1 |
| 20260509051040 | 12 | 194 | 1.6 | 0.0 | 0.00 | 0.00 | 0.00 | 95 | 1013.0 |
| 20260509050543 | 12 | 236 | 1.6 | 0.0 | 0.00 | 0.00 | 0.00 | 95 | 1013.0 |
| 20260509050040 | 12 | 166 | 1.6 | 0.0 | 0.00 | 0.00 | 0.00 | 95 | 1013.0 |
| 20260509045539 | 12 | 198 | 1.6 | 0.0 | 0.00 | 0.00 | 0.00 | 95 | 1013.0 |
| 20260509045039 | 12 | 180 | 0.0 | 0.0 | 0.00 | 0.00 | 0.00 | 95 | 1013.0 |
| 20260509044539 | 12 | 202 | 0.0 | 0.0 | 0.00 | 0.00 | 0.00 | 95 | 1013.0 |
| 20260509044039 | 12 | 214 | 0.0 | 0.0 | 0.00 | 0.00 | 0.00 | 94 | 1013.0 |
| 20260509043542 | 12 | 214 | 0.0 | 0.0 | 0.00 | 0.00 | 0.00 | 94 | 1013.0 |
| 20260509043039 | 12 | 216 | 1.6 | 0.0 | 0.00 | 0.00 | 0.00 | 94 | 1013.0 |
| 20260509042538 | 12 | 202 | 3.2 | 0.0 | 0.00 | 0.00 | 0.00 | 94 | 1012.9 |
| 20260509042038 | 12 | 172 | 3.2 | 0.0 | 0.00 | 0.00 | 0.00 | 94 | 1012.9 |
| 20260509041538 | 12 | 194 | 1.6 | 0.0 | 0.00 | 0.00 | 0.00 | 94 | 1012.9 |
| 20260509041039 | 12 | 221 | 1.6 | 0.0 | 0.00 | 0.00 | 0.00 | 94 | 1012.8 |
| 20260509040538 | 12 | 205 | 3.2 | 0.0 | 0.00 | 0.00 | 0.00 | 94 | 1012.8 |
| 20260509040042 | 12 | 216 | 3.2 | 0.0 | 0.00 | 0.00 | 0.00 | 94 | 1012.8 |
| 20260509035539 | 12 | 186 | 1.6 | 0.0 | 0.00 | 0.00 | 0.00 | 94 | 1012.7 |
| 20260509035038 | 12 | 162 | 3.2 | 0.0 | 0.00 | 0.00 | 0.00 | 94 | 1012.7 |
| 20260509034539 | 12 | 180 | 3.2 | 0.0 | 0.00 | 0.00 | 0.00 | 94 | 1012.7 |
| 20260509034036 | 12 | 171 | 3.2 | 0.0 | 0.00 | 0.00 | 0.00 | 94 | 1012.4 |
| 20260509033540 | 12 | 200 | 1.6 | 0.0 | 0.00 | 0.00 | 0.00 | 94 | 1012.4 |
| 20260509033037 | 13 | 191 | 1.6 | 0.0 | 0.00 | 0.00 | 0.00 | 94 | 1012.4 |
| 20260509032538 | 13 | 227 | 3.2 | 0.0 | 0.00 | 0.00 | 0.00 | 94 | 1012.4 |
| 20260509032037 | 13 | 180 | 3.2 | 0.0 | 0.00 | 0.00 | 0.00 | 94 | 1012.4 |
| 20260509031543 | 13 | 212 | 3.2 | 0.0 | 0.00 | 0.00 | 0.00 | 94 | 1012.4 |
| 20260509031037 | 13 | 193 | 3.2 | 0.0 | 0.00 | 0.00 | 0.00 | 94 | 1012.3 |
| 20260509030536 | 13 | 200 | 3.2 | 0.0 | 0.00 | 0.00 | 0.00 | 94 | 1012.3 |
| 20260509030036 | 13 | 198 | 1.6 | 0.0 | 0.00 | 0.00 | 0.00 | 94 | 1012.3 |
| 20260509025535 | 13 | 196 | 1.6 | 0.0 | 0.00 | 0.00 | 0.00 | 94 | 1012.2 |
| 20260509025039 | 13 | 188 | 1.6 | 0.0 | 0.00 | 0.00 | 0.00 | 94 | 1012.2 |
| 20260509024535 | 13 | 187 | 3.2 | 0.0 | 0.00 | 0.00 | 0.00 | 94 | 1012.2 |
| 20260509024036 | 13 | 186 | 3.2 | 0.0 | 0.00 | 0.00 | 0.00 | 94 | 1012.1 |
| 20260509023536 | 13 | 177 | 3.2 | 0.0 | 0.00 | 0.00 | 0.00 | 94 | 1012.1 |
| 20260509023036 | 13 | 229 | 1.6 | 0.0 | 0.00 | 0.00 | 0.00 | 94 | 1012.1 |
| 20260509022535 | 13 | 197 | 3.2 | 0.0 | 0.00 | 0.00 | 0.00 | 94 | 1011.9 |
| 20260509022034 | 13 | 229 | 3.2 | 0.0 | 0.00 | 0.00 | 0.00 | 94 | 1011.9 |
| 20260509021535 | 13 | 182 | 4.8 | 0.0 | 0.00 | 0.00 | 0.00 | 93 | 1011.9 |
| 20260509021037 | 13 | 202 | 4.8 | 0.0 | 0.00 | 0.00 | 0.00 | 93 | 1011.9 |
| 20260509020534 | 13 | 176 | 4.8 | 0.0 | 0.00 | 0.00 | 0.00 | 93 | 1011.9 |
| 20260509020033 | 13 | 247 | 6.4 | 0.0 | 0.00 | 0.00 | 0.00 | 93 | 1011.9 |
| 20260509015533 | 13 | 165 | 6.4 | 0.0 | 0.00 | 0.00 | 0.00 | 93 | 1011.8 |
| 20260509015034 | 14 | 211 | 4.8 | 0.0 | 0.00 | 0.00 | 0.00 | 93 | 1011.8 |
| 20260509014540 | 14 | 198 | 4.8 | 0.0 | 0.00 | 0.00 | 0.00 | 92 | 1011.8 |
| 20260509014033 | 14 | 191 | 4.8 | 0.0 | 0.00 | 0.00 | 0.00 | 93 | 1011.8 |
| 20260509013533 | 14 | 202 | 3.2 | 0.0 | 0.00 | 0.00 | 0.00 | 92 | 1011.8 |
| 20260509013036 | 14 | 279 | 3.2 | 0.0 | 0.00 | 0.00 | 0.00 | 92 | 1011.8 |
| 20260509012533 | 15 | 196 | 3.2 | 0.0 | 0.00 | 0.00 | 0.00 | 92 | 1011.9 |
| 20260509012034 | 15 | 209 | 3.2 | 0.0 | 0.00 | 0.00 | 0.00 | 92 | 1011.9 |
| 20260509011533 | 15 | 242 | 4.8 | 0.0 | 0.00 | 0.00 | 0.00 | 92 | 1011.9 |
| 20260509011032 | 15 | 171 | 6.4 | 0.0 | 0.00 | 0.00 | 0.00 | 92 | 1011.8 |
| 20260509010532 | 15 | 206 | 4.8 | 0.0 | 0.00 | 0.00 | 0.00 | 92 | 1011.8 |
| 20260509010038 | 15 | 166 | 4.8 | 0.0 | 0.00 | 0.00 | 0.00 | 91 | 1011.8 |
| 20260509005533 | 15 | 210 | 4.8 | 0.0 | 0.00 | 0.00 | 0.00 | 91 | 1011.8 |
| 20260509005033 | 15 | 186 | 3.2 | 0.0 | 0.00 | 0.00 | 0.00 | 91 | 1011.8 |
| 20260509004533 | 15 | 162 | 4.8 | 0.0 | 0.00 | 0.00 | 0.00 | 90 | 1011.8 |
| 20260509004032 | 15 | 170 | 4.8 | 0.0 | 0.00 | 0.00 | 0.00 | 89 | 1012.0 |
| 20260509003532 | 15 | 215 | 4.8 | 0.0 | 0.00 | 0.00 | 0.00 | 89 | 1012.0 |
| 20260509003031 | 16 | 185 | 4.8 | 0.0 | 0.00 | 0.00 | 0.00 | 89 | 1012.0 |
| 20260509002530 | 16 | 240 | 6.4 | 0.0 | 0.00 | 0.00 | 0.00 | 88 | 1012.0 |
| 20260509002030 | 16 | 144 | 8.0 | 0.0 | 0.00 | 0.00 | 0.00 | 86 | 1012.0 |
| 20260509001531 | 16 | 211 | 8.0 | 0.0 | 0.00 | 0.00 | 0.00 | 85 | 1012.0 |
| 20260509001030 | 17 | 211 | 6.4 | 0.0 | 0.00 | 0.00 | 0.00 | 84 | 1011.9 |
| 20260509000530 | 17 | 172 | 6.4 | 0.0 | 0.00 | 0.00 | 0.00 | 84 | 1011.9 |
| 20260509000030 | 17 | 199 | 6.4 | 0.0 | 0.00 | 0.00 | 0.00 | 84 | 1011.9 |
| 20260508235531 | 17 | 198 | 6.4 | 0.0 | 0.00 | 0.00 | 0.00 | 84 | 1011.9 |
| 20260508235031 | 17 | 215 | 4.8 | 0.0 | 0.00 | 0.00 | 0.00 | 83 | 1011.9 |
| 20260508234529 | 17 | 236 | 4.8 | 0.0 | 0.00 | 0.00 | 0.00 | 83 | 1011.9 |
| 20260508234030 | 17 | 162 | 4.8 | 0.0 | 0.00 | 0.00 | 0.00 | 84 | 1012.0 |
| 20260508233529 | 17 | 254 | 4.8 | 0.0 | 0.00 | 0.00 | 0.00 | 83 | 1012.0 |
| 20260508233029 | 17 | 204 | 4.8 | 0.0 | 0.00 | 0.00 | 0.00 | 83 | 1012.0 |
| 20260508232528 | 17 | 189 | 4.8 | 0.0 | 0.00 | 0.00 | 0.00 | 83 | 1012.0 |
| 20260508232028 | 17 | 173 | 6.4 | 0.0 | 0.00 | 0.00 | 0.00 | 82 | 1012.0 |
| 20260508231528 | 18 | 158 | 4.8 | 0.0 | 0.00 | 0.00 | 0.00 | 81 | 1012.0 |
| 20260508231027 | 18 | 213 | 4.8 | 0.0 | 0.00 | 0.00 | 0.00 | 83 | 1012.3 |
| 20260508230526 | 17 | 207 | 4.8 | 0.0 | 0.00 | 0.00 | 0.00 | 82 | 1012.3 |
| 20260508230025 | 17 | 245 | 4.8 | 0.0 | 0.00 | 0.00 | 0.00 | 82 | 1012.3 |
| 20260508225528 | 17 | 250 | 3.2 | 0.0 | 0.00 | 0.00 | 0.00 | 82 | 1012.3 |
| 20260508225025 | 17 | 178 | 3.2 | 0.0 | 0.00 | 0.00 | 0.00 | 83 | 1012.3 |
| 20260508224524 | 17 | 215 | 4.8 | 0.0 | 0.00 | 0.00 | 0.00 | 83 | 1012.3 |
| 20260508224023 | 17 | 217 | 4.8 | 0.0 | 0.00 | 0.00 | 0.00 | 84 | 1012.6 |
| 20260508223523 | 17 | 194 | 4.8 | 0.0 | 0.00 | 0.00 | 0.00 | 84 | 1012.6 |
| 20260508223029 | 17 | 194 | 4.8 | 0.0 | 0.00 | 0.00 | 0.00 | 85 | 1012.6 |
| 20260508222522 | 17 | 198 | 4.8 | 0.0 | 0.00 | 0.00 | 0.00 | 86 | 1012.8 |
| 20260508222024 | 17 | 175 | 4.8 | 0.0 | 0.00 | 0.00 | 0.00 | 86 | 1012.8 |
| 20260508221521 | 17 | 183 | 4.8 | 0.0 | 0.00 | 0.00 | 0.00 | 87 | 1012.8 |
| 20260508221021 | 17 | 200 | 4.8 | 0.0 | 0.00 | 0.00 | 0.00 | 86 | 1013.1 |
| 20260508220523 | 17 | 188 | 4.8 | 0.0 | 0.00 | 0.00 | 0.00 | 86 | 1013.1 |
| 20260508220100 | 17 | 172 | 4.8 | 0.0 | 0.00 | 0.00 | 0.00 | 87 | 1013.1 |
| 20260508215520 | 17 | 173 | 6.4 | 0.0 | 0.00 | 0.00 | 0.00 | 87 | 1013.1 |
| 20260508215020 | 17 | 165 | 6.4 | 0.0 | 0.00 | 0.00 | 0.00 | 85 | 1013.1 |
| 20260508214520 | 17 | 190 | 4.8 | 0.0 | 0.00 | 0.00 | 0.00 | 87 | 1013.1 |
| 20260508214018 | 16 | 174 | 6.4 | 0.0 | 0.00 | 0.00 | 0.00 | 86 | 1013.3 |
| 20260508213517 | 16 | 172 | 4.8 | 0.0 | 0.00 | 0.00 | 0.00 | 87 | 1013.3 |
| 20260508213017 | 16 | 360 | 4.8 | 0.0 | 0.00 | 0.00 | 0.00 | 87 | 1013.3 |
| 20260508212518 | 16 | 178 | 6.4 | 0.0 | 0.00 | 0.00 | 0.00 | 86 | 1013.6 |
| 20260508212017 | 16 | 152 | 6.4 | 0.0 | 0.00 | 0.00 | 0.00 | 88 | 1013.6 |
| 20260508211522 | 16 | 199 | 6.4 | 0.0 | 0.00 | 0.00 | 0.00 | 88 | 1013.6 |
| 20260508211016 | 16 | 169 | 6.4 | 0.0 | 0.00 | 0.00 | 0.00 | 87 | 1013.8 |
| 20260508210516 | 16 | 148 | 4.8 | 0.0 | 0.00 | 0.00 | 0.00 | 88 | 1013.8 |
| 20260508210015 | 16 | 148 | 4.8 | 0.0 | 0.00 | 0.00 | 0.00 | 88 | 1013.8 |
| 20260508205514 | 16 | 173 | 4.8 | 0.0 | 0.00 | 0.00 | 0.00 | 88 | 1013.8 |
| 20260508205014 | 16 | 184 | 4.8 | 0.0 | 0.00 | 0.00 | 0.00 | 89 | 1013.8 |
| 20260508204513 | 16 | 225 | 4.8 | 0.0 | 0.00 | 0.00 | 0.00 | 91 | 1013.8 |
| 20260508204017 | 16 | 182 | 6.4 | 0.0 | 0.00 | 0.00 | 0.00 | 90 | 1013.8 |
| 20260508203512 | 16 | 150 | 4.8 | 0.0 | 0.00 | 0.00 | 0.00 | 90 | 1013.8 |
| 20260508203012 | 16 | 181 | 4.8 | 0.0 | 0.00 | 0.00 | 0.00 | 90 | 1013.8 |
| 20260508202513 | 16 | 192 | 6.4 | 0.0 | 0.00 | 0.00 | 0.00 | 91 | 1014.0 |
| 20260508202011 | 16 | 169 | 6.4 | 0.0 | 0.00 | 0.00 | 0.00 | 91 | 1014.0 |
| 20260508201512 | 16 | 186 | 4.8 | 0.0 | 0.00 | 0.00 | 0.00 | 91 | 1014.0 |
| 20260508201011 | 15 | 149 | 4.8 | 0.0 | 0.00 | 0.00 | 0.00 | 92 | 1014.2 |
| 20260508200511 | 15 | 115 | 4.8 | 0.0 | 0.00 | 0.00 | 0.00 | 91 | 1014.2 |
| 20260508200010 | 16 | 155 | 4.8 | 0.0 | 0.00 | 0.00 | 0.00 | 92 | 1014.2 |
| 20260508195510 | 16 | 200 | 4.8 | 0.0 | 0.00 | 0.00 | 0.00 | 93 | 1014.3 |
| 20260508195008 | 15 | 211 | 4.8 | 0.0 | 0.00 | 0.00 | 0.00 | 94 | 1014.3 |
| 20260508194508 | 15 | 166 | 4.8 | 0.0 | 0.00 | 0.00 | 0.00 | 94 | 1014.3 |
| 20260508194008 | 15 | 206 | 4.8 | 0.0 | 0.00 | 0.00 | 0.00 | 94 | 1014.4 |
| 20260508193506 | 15 | 192 | 4.8 | 0.0 | 0.00 | 0.00 | 0.00 | 95 | 1014.4 |
| 20260508193005 | 15 | 165 | 4.8 | 0.0 | 0.00 | 0.00 | 0.00 | 95 | 1014.4 |
| 20260508192504 | 15 | 228 | 4.8 | 0.0 | 0.00 | 0.00 | 0.00 | 95 | 1014.5 |
| 20260508192004 | 15 | 146 | 3.2 | 0.0 | 0.00 | 0.00 | 0.00 | 96 | 1014.5 |
| 20260508191505 | 14 | 183 | 3.2 | 0.0 | 0.00 | 0.00 | 0.00 | 96 | 1014.8 |
| 20260508191002 | 14 | 201 | 3.2 | 0.0 | 0.00 | 0.00 | 0.00 | 96 | 1014.8 |
| 20260508190504 | 14 | 149 | 3.2 | 0.0 | 0.00 | 0.00 | 0.00 | 96 | 1014.8 |
| 20260508190108 | 13 | 204 | 3.2 | 0.0 | 0.00 | 0.00 | 0.00 | 96 | 1014.8 |
| 20260508185559 | 13 | 209 | 3.2 | 0.0 | 0.00 | 0.00 | 0.00 | 95 | 1015.0 |
| 20260508185059 | 13 | 200 | 3.2 | 0.0 | 0.00 | 0.00 | 0.00 | 96 | 1015.0 |
| 20260508184558 | 13 | 219 | 3.2 | 0.0 | 0.00 | 0.00 | 0.00 | 96 | 1015.0 |
| 20260508184057 | 13 | 185 | 3.2 | 0.0 | 0.00 | 0.00 | 0.00 | 96 | 1015.0 |
| 20260508183557 | 13 | 178 | 3.2 | 0.0 | 0.00 | 0.00 | 0.00 | 96 | 1015.0 |
| 20260508183057 | 13 | 195 | 3.2 | 0.0 | 0.00 | 0.00 | 0.00 | 96 | 1015.0 |
| 20260508182556 | 13 | 161 | 3.2 | 0.0 | 0.00 | 0.00 | 0.00 | 96 | 1015.0 |
| 20260508182057 | 13 | 204 | 3.2 | 0.0 | 0.00 | 0.00 | 0.00 | 96 | 1015.0 |
| 20260508181608 | 13 | 207 | 3.2 | 0.0 | 0.00 | 0.00 | 0.00 | 96 | 1015.0 |
| 20260508181056 | 13 | 158 | 3.2 | 0.0 | 0.00 | 0.00 | 0.00 | 96 | 1015.0 |
| 20260508180556 | 13 | 203 | 3.2 | 0.0 | 0.00 | 0.00 | 0.00 | 96 | 1015.0 |
| 20260508180105 | 13 | 155 | 3.2 | 0.0 | 0.00 | 0.00 | 0.00 | 96 | 1015.0 |
| 20260508175555 | 13 | 173 | 3.2 | 0.0 | 0.00 | 0.00 | 0.00 | 96 | 1015.1 |
| 20260508175055 | 13 | 236 | 3.2 | 0.0 | 0.00 | 0.00 | 0.00 | 96 | 1015.1 |
| 20260508174609 | 13 | 84 | 1.6 | 0.0 | 0.00 | 0.00 | 0.00 | 96 | 1015.1 |
| 20260508174056 | 13 | 42 | 1.6 | 0.0 | 0.00 | 0.00 | 0.00 | 96 | 1015.2 |
| 20260508173554 | 13 | 53 | 1.6 | 0.0 | 0.00 | 0.00 | 0.00 | 96 | 1015.2 |
| 20260508173055 | 13 | 45 | 1.6 | 0.0 | 0.00 | 0.00 | 0.00 | 96 | 1015.2 |
| 20260508172554 | 13 | 47 | 1.6 | 0.0 | 0.00 | 0.00 | 0.00 | 96 | 1015.3 |
| 20260508172053 | 13 | 72 | 1.6 | 0.0 | 0.00 | 0.00 | 0.00 | 96 | 1015.3 |
| 20260508171553 | 13 | 50 | 3.2 | 0.0 | 0.00 | 0.00 | 0.00 | 96 | 1015.3 |
| 20260508171056 | 13 | 355 | 3.2 | 0.0 | 0.00 | 0.00 | 0.00 | 96 | 1015.1 |
| 20260508170552 | 13 | 96 | 3.2 | 0.0 | 0.00 | 0.00 | 0.00 | 96 | 1015.1 |
| 20260508170054 | 13 | 82 | 3.2 | 0.0 | 0.00 | 0.00 | 0.00 | 96 | 1015.1 |
| 20260508165550 | 13 | 94 | 3.2 | 0.0 | 0.00 | 0.00 | 0.00 | 96 | 1015.1 |
| 20260508165050 | 13 | 105 | 3.2 | 0.0 | 0.00 | 0.00 | 0.00 | 96 | 1015.1 |
| 20260508164551 | 13 | 150 | 3.2 | 0.0 | 0.00 | 0.00 | 0.00 | 96 | 1015.1 |
| 20260508164051 | 13 | 106 | 3.2 | 0.0 | 0.00 | 0.00 | 0.00 | 96 | 1015.1 |
| 20260508163553 | 12 | 150 | 3.2 | 0.0 | 0.00 | 0.00 | 0.00 | 96 | 1015.1 |
| 20260508163050 | 12 | 67 | 4.8 | 0.0 | 0.00 | 0.00 | 0.00 | 96 | 1015.1 |
| 20260508162550 | 12 | 100 | 3.2 | 0.0 | 0.00 | 0.00 | 0.00 | 96 | 1015.1 |
| 20260508162050 | 12 | 94 | 3.2 | 0.0 | 0.00 | 0.00 | 0.00 | 96 | 1015.1 |
| 20260508161550 | 12 | 63 | 3.2 | 0.0 | 0.00 | 0.00 | 0.00 | 96 | 1015.1 |
| 20260508161049 | 12 | 85 | 4.8 | 0.0 | 0.00 | 0.00 | 0.00 | 96 | 1015.1 |
| 20260508160553 | 12 | 5 | 4.8 | 0.0 | 0.00 | 0.00 | 0.00 | 96 | 1015.1 |
| 20260508160048 | 12 | 71 | 3.2 | 0.0 | 0.00 | 0.00 | 0.00 | 96 | 1015.1 |
| 20260508155549 | 12 | 82 | 3.2 | 0.0 | 0.00 | 0.00 | 0.00 | 96 | 1015.0 |
| 20260508155048 | 12 | 73 | 3.2 | 0.0 | 0.00 | 0.00 | 0.00 | 96 | 1015.0 |
| 20260508154549 | 12 | 76 | 3.2 | 0.0 | 0.00 | 0.00 | 0.00 | 96 | 1015.0 |
| 20260508154048 | 12 | 42 | 1.6 | 0.0 | 0.00 | 0.00 | 0.00 | 96 | 1014.9 |
| 20260508153548 | 12 | 19 | 3.2 | 0.0 | 0.00 | 0.00 | 0.00 | 96 | 1014.9 |
| 20260508153048 | 12 | 59 | 4.8 | 0.0 | 0.00 | 0.00 | 0.00 | 96 | 1014.9 |
| 20260508152551 | 12 | 74 | 4.8 | 0.0 | 0.00 | 0.00 | 0.00 | 96 | 1015.1 |
| 20260508152047 | 12 | 49 | 4.8 | 0.0 | 0.00 | 0.00 | 0.00 | 96 | 1015.1 |
| 20260508151547 | 12 | 75 | 3.2 | 0.0 | 0.00 | 0.00 | 0.00 | 96 | 1015.1 |
| 20260508151047 | 12 | 132 | 1.6 | 0.0 | 0.00 | 0.00 | 0.00 | 96 | 1015.1 |
| 20260508150547 | 12 | 79 | 1.6 | 0.0 | 0.00 | 0.00 | 0.00 | 96 | 1015.1 |
| 20260508150046 | 12 | 36 | 4.8 | 0.0 | 0.00 | 0.00 | 0.00 | 96 | 1015.1 |
| 20260508145546 | 12 | 38 | 4.8 | 0.0 | 0.00 | 0.00 | 0.00 | 96 | 1015.1 |
| 20260508145045 | 12 | 30 | 4.8 | 0.0 | 0.00 | 0.00 | 0.00 | 96 | 1015.1 |
| 20260508144545 | 12 | 68 | 4.8 | 0.0 | 0.00 | 0.00 | 0.00 | 96 | 1015.1 |
| 20260508144045 | 12 | 130 | 3.2 | 0.0 | 0.00 | 0.00 | 0.00 | 96 | 1015.1 |
| 20260508143545 | 12 | 36 | 3.2 | 0.0 | 0.00 | 0.00 | 0.00 | 95 | 1015.1 |
| 20260508143051 | 12 | 38 | 3.2 | 0.0 | 0.00 | 0.00 | 0.00 | 95 | 1015.1 |
| 20260508142544 | 12 | 54 | 3.2 | 0.0 | 0.00 | 0.00 | 0.00 | 95 | 1015.0 |
| 20260508142044 | 12 | 76 | 4.8 | 0.0 | 0.00 | 0.00 | 0.00 | 95 | 1015.0 |
| 20260508141555 | 12 | 16 | 4.8 | 0.0 | 0.00 | 0.00 | 0.00 | 95 | 1015.0 |
| 20260508141043 | 12 | 53 | 3.2 | 0.0 | 0.00 | 0.00 | 0.00 | 95 | 1014.5 |
| 20260508140543 | 12 | 78 | 1.6 | 0.0 | 0.00 | 0.00 | 0.00 | 95 | 1014.5 |
| 20260508140042 | 12 | 101 | 1.6 | 0.0 | 0.00 | 0.00 | 0.00 | 95 | 1014.5 |
| 20260508135542 | 12 | 105 | 3.2 | 0.0 | 0.00 | 0.00 | 0.00 | 95 | 1014.6 |
| 20260508135043 | 12 | 97 | 3.2 | 0.0 | 0.00 | 0.00 | 0.00 | 95 | 1014.6 |
| 20260508134555 | 12 | 136 | 3.2 | 0.0 | 0.00 | 0.00 | 0.00 | 95 | 1014.6 |
| 20260508134042 | 12 | 109 | 4.8 | 0.0 | 0.00 | 0.00 | 0.00 | 95 | 1014.6 |
| 20260508133542 | 12 | 111 | 1.6 | 0.0 | 0.00 | 0.00 | 0.00 | 95 | 1014.6 |
| 20260508133041 | 12 | 62 | 1.6 | 0.0 | 0.00 | 0.00 | 0.00 | 95 | 1014.6 |
| 20260508132541 | 12 | 78 | 3.2 | 0.0 | 0.00 | 0.00 | 0.00 | 95 | 1014.5 |
| 20260508132041 | 12 | 142 | 3.2 | 0.0 | 0.00 | 0.00 | 0.00 | 95 | 1014.5 |
| 20260508131540 | 12 | 116 | 3.2 | 0.0 | 0.00 | 0.00 | 0.00 | 95 | 1014.5 |
| 20260508131040 | 12 | 74 | 3.2 | 0.0 | 0.00 | 0.00 | 0.00 | 95 | 1014.2 |
| 20260508130543 | 12 | 78 | 3.2 | 0.0 | 0.00 | 0.00 | 0.00 | 95 | 1014.2 |
| 20260508130040 | 12 | 78 | 3.2 | 0.0 | 0.00 | 0.00 | 0.00 | 95 | 1014.2 |
| 20260508125539 | 12 | 63 | 3.2 | 0.0 | 0.00 | 0.00 | 0.00 | 95 | 1014.0 |
| 20260508125039 | 12 | 65 | 3.2 | 0.0 | 0.00 | 0.00 | 0.00 | 95 | 1014.0 |
| 20260508124539 | 12 | 71 | 3.2 | 0.0 | 0.00 | 0.00 | 0.00 | 95 | 1014.0 |
| 20260508124039 | 12 | 71 | 3.2 | 0.0 | 0.00 | 0.00 | 0.00 | 95 | 1013.9 |
| 20260508123538 | 12 | 71 | 4.8 | 0.0 | 0.00 | 0.00 | 0.00 | 95 | 1013.9 |
| 20260508123040 | 12 | 61 | 4.8 | 0.0 | 0.00 | 0.00 | 0.00 | 95 | 1013.9 |
| 20260508122537 | 12 | 71 | 4.8 | 0.0 | 0.00 | 0.00 | 0.00 | 95 | 1013.8 |
| 20260508122038 | 12 | 98 | 4.8 | 0.0 | 0.00 | 0.00 | 0.00 | 95 | 1013.8 |
| 20260508121541 | 12 | 61 | 3.2 | 0.0 | 0.00 | 0.00 | 0.00 | 95 | 1013.8 |
| 20260508121038 | 12 | 163 | 3.2 | 0.0 | 0.00 | 0.00 | 0.00 | 95 | 1013.6 |
| 20260508120538 | 12 | 75 | 3.2 | 0.0 | 0.00 | 0.00 | 0.00 | 95 | 1013.6 |
| 20260508120042 | 12 | 90 | 3.2 | 0.0 | 0.00 | 0.00 | 0.00 | 95 | 1013.6 |
| 20260508115540 | 12 | 58 | 3.2 | 0.0 | 0.00 | 0.00 | 0.00 | 95 | 1013.6 |
| 20260508115036 | 12 | 85 | 3.2 | 0.0 | 0.00 | 0.00 | 0.00 | 95 | 1013.6 |
| 20260508114546 | 12 | 27 | 1.6 | 0.0 | 0.00 | 0.00 | 0.00 | 95 | 1013.6 |
| 20260508114038 | 12 | 75 | 1.6 | 0.0 | 0.00 | 0.00 | 0.00 | 95 | 1013.6 |
| 20260508113536 | 12 | 78 | 3.2 | 0.0 | 0.00 | 0.00 | 0.00 | 95 | 1013.6 |
| 20260508113040 | 12 | 63 | 1.6 | 0.0 | 0.00 | 0.00 | 0.00 | 95 | 1013.6 |
| 20260508112536 | 12 | 53 | 3.2 | 0.0 | 0.00 | 0.00 | 0.00 | 95 | 1013.6 |
| 20260508112040 | 12 | 136 | 3.2 | 0.0 | 0.00 | 0.00 | 0.00 | 95 | 1013.6 |
| 20260508111541 | 12 | 70 | 3.2 | 0.0 | 0.00 | 0.00 | 0.00 | 95 | 1013.6 |
| 20260508111037 | 12 | 48 | 3.2 | 0.0 | 0.00 | 0.00 | 0.00 | 95 | 1013.5 |
| 20260508110535 | 12 | 87 | 3.2 | 0.0 | 0.00 | 0.00 | 0.00 | 95 | 1013.5 |
| 20260508110034 | 12 | 63 | 1.6 | 0.0 | 0.00 | 0.00 | 0.00 | 95 | 1013.5 |
| 20260508105534 | 12 | 136 | 0.0 | 0.0 | 0.00 | 0.00 | 0.00 | 95 | 1013.6 |
| 20260508105033 | 12 | 140 | 1.6 | 0.0 | 0.00 | 0.00 | 0.00 | 95 | 1013.6 |
| 20260508104533 | 12 | 85 | 1.6 | 0.0 | 0.00 | 0.00 | 0.00 | 95 | 1013.6 |
| 20260508104033 | 12 | 80 | 1.6 | 0.0 | 0.00 | 0.00 | 0.00 | 95 | 1013.6 |
| 20260508103533 | 12 | 130 | 1.6 | 0.0 | 0.00 | 0.00 | 0.00 | 95 | 1013.6 |
| 20260508103038 | 12 | 77 | 1.6 | 0.0 | 0.00 | 0.00 | 0.00 | 95 | 1013.6 |
| 20260508102533 | 12 | 35 | 1.6 | 0.0 | 0.00 | 0.00 | 0.00 | 95 | 1013.6 |
| 20260508102033 | 12 | 107 | 1.6 | 0.0 | 0.00 | 0.00 | 0.00 | 95 | 1013.6 |
| 20260508101533 | 12 | 122 | 1.6 | 0.0 | 0.00 | 0.00 | 0.00 | 95 | 1013.6 |
| 20260508101032 | 12 | 98 | 1.6 | 0.0 | 0.00 | 0.00 | 0.00 | 95 | 1013.6 |
| 20260508100532 | 12 | 67 | 1.6 | 0.0 | 0.00 | 0.00 | 0.00 | 95 | 1013.6 |
| 20260508100031 | 12 | 95 | 1.6 | 0.0 | 0.00 | 0.00 | 0.00 | 95 | 1013.6 |
| 20260508095531 | 12 | 97 | 1.6 | 0.0 | 0.00 | 0.00 | 0.00 | 95 | 1013.6 |
| 20260508095032 | 12 | 120 | 1.6 | 0.0 | 0.00 | 0.00 | 0.00 | 95 | 1013.6 |
| 20260508094532 | 12 | 153 | 1.6 | 0.0 | 0.00 | 0.00 | 0.00 | 95 | 1013.6 |
| 20260508094030 | 12 | 120 | 1.6 | 0.0 | 0.00 | 0.00 | 0.00 | 95 | 1013.7 |
| 20260508093530 | 12 | 134 | 1.6 | 0.0 | 0.00 | 0.00 | 0.00 | 95 | 1013.7 |
| 20260508093034 | 12 | 166 | 1.6 | 0.0 | 0.00 | 0.00 | 0.00 | 95 | 1013.7 |
| 20260508092531 | 12 | 142 | 1.6 | 0.0 | 0.00 | 0.00 | 0.00 | 95 | 1013.7 |
| 20260508092029 | 12 | 132 | 1.6 | 0.0 | 0.00 | 0.00 | 0.00 | 95 | 1013.7 |
| 20260508091535 | 12 | 165 | 1.6 | 0.0 | 0.00 | 0.00 | 0.00 | 95 | 1013.7 |
| 20260508091032 | 12 | 139 | 1.6 | 0.0 | 0.00 | 0.00 | 0.00 | 95 | 1014.0 |
| 20260508090528 | 12 | 161 | 1.6 | 0.0 | 0.00 | 0.00 | 0.00 | 95 | 1014.0 |
| 20260508090028 | 12 | 161 | 1.6 | 0.0 | 0.00 | 0.00 | 0.00 | 95 | 1014.0 |
| 20260508085527 | 12 | 161 | 1.6 | 0.0 | 0.00 | 0.00 | 0.00 | 95 | 1014.1 |
| 20260508085027 | 12 | 144 | 1.6 | 0.0 | 0.00 | 0.00 | 0.00 | 95 | 1014.1 |